Regional Weather Roundup
Issued by NWS

Home | Current Version | Previous Version | Graphics & Text | Print | Product List | Glossary On
Versions: 1 2 3 4 5 6 7 8 9 10 11 12 13 14 15 16 17 18 19 20 21 22 23 24 25 26 27 28 29 30 31 32 33 34 35 36 37 38 39 40 41 42 43 44 45 46 47 48 49 50
000
ASUS43 KLOT 202003
RWRIL

ILLINOIS REGIONAL WEATHER ROUNDUP
NATIONAL WEATHER SERVICE CHICAGO/ROMEOVILLE IL
300 PM CDT FRI APR 20 2018

NOTE: "FAIR" INDICATES FEW OR NO CLOUDS BELOW 12,000 FEET WITH NO
SIGNIFICANT WEATHER AND/OR OBSTRUCTIONS TO VISIBILITY.

* THESE STATIONS ARE NOT UNDER NWS QUALITY CONTROL. THEY ALSO MAY NOT
  REPORT WEATHER SUCH AS PRECIPITATION OR FOG.

ILZ001-002-007-009-015-016-024-202100-
NORTHWEST ILLINOIS

CITY           SKY/WX    TMP DP  RH WIND       PRES   REMARKS
MOLINE         FAIR      61  14  16 SE8       30.44F
STERLING*      FAIR      60  25  26 NE5       30.47F
SAVANNA*       FAIR      59  21  22 SW8       30.47F
$$

ILZ003-004-008-010-011-017-018-202100-
NORTH CENTRAL ILLINOIS

CITY           SKY/WX    TMP DP  RH WIND       PRES   REMARKS
ROCKFORD       FAIR      58  18  21 VRB5      30.48F
FREEPORT*      FAIR      57  23  27 SW9       30.49F
ROCHELLE*      FAIR      58  24  27 CALM      30.48F
DE KALB*       FAIR      59  22  24 E6        30.47F
PERU*          FAIR      61  20  20 CALM      30.47F
$$

ILZ005-006-012>014-019>023-202100-
NORTHEAST ILLINOIS

CITY           SKY/WX    TMP DP  RH WIND       PRES   REMARKS
CHICAGO-OHARE  FAIR      59  18  20 E3        30.45F
CHICAGO-MIDWAY PTSUNNY   59  17  19 NE12      30.47F
AURORA         FAIR      60  16  18 CALM      30.47S
LANSING*       FAIR      57  28  33 NE7       30.47F
JOLIET*        FAIR      60  21  21 NE3       30.47S
WAUKEGAN       FAIR      51  26  37 SE9       30.47F
DUPAGE AIRPORT FAIR      61  17  18 N3        30.46F
KANKAKEE*      FAIR      60  19  21 E3        30.46F
WHEELING       FAIR      59  21  23 CALM      30.48F
MORRIS*        FAIR      60  19  20 CALM      30.46F
ROMEOVILLE*    FAIR      60  19  20 CALM      30.47S
NORTHERLY ISL    N/A     44  35  70 NE3         N/A
$$

LMZ740>746-202100-
SOUTHERN LAKE MICHIGAN

STATION/POSITION SKY/WX   TEMP    WIND        PRES    VSBY  WAVE
                          AIR SEA DIR/SP/G                  HT/PER
                          (F)     (DEG/KT/KT) (MB)    (MI)  (FT/S)
HARRISON CRIB              45      90/  9/  9   N/A
BURNHAM HARBOR             44      50/  2/  4   N/A
CALUMET HARBOR             43      50/  8/  9 1031.8F
BURNS HARBOR               44      60/  7/  8 1032.8F
MICHIGAN CITY              40      20/  6/  6   N/A
$$

ILZ025>027-034>036-040-047-049-050-058-095>099-202100-
WEST-CENTRAL ILLINOIS

CITY           SKY/WX    TMP DP  RH WIND       PRES   REMARKS
QUINCY         CLOUDY    60  15  17 SE12G22   30.41F
GALESBURG*     FAIR      63  24  22 E3        30.45F
MACOMB*        MOSUNNY   59  18  20 SE8G18    30.46F
JACKSONVILLE*  CLOUDY    60  22  22 E15       30.43F
PITTSFIELD*    MOSUNNY   60  20  21 E9        30.43F
$$

ILZ028>032-037-038-041>044-048-051>054-059>061-202100-
CENTRAL ILLINOIS

CITY           SKY/WX    TMP DP  RH WIND       PRES   REMARKS
PONTIAC        FAIR      60  21  21 NE6       30.47F
BLOOMINGTON    FAIR      60  21  22 VRB5      30.47F
DECATUR        FAIR      60  17  18 E10G18    30.44F
PEORIA         FAIR      61  19  19 VRB5      30.46F
LACON*         FAIR      60  21  22 E6        30.45F
LINCOLN*       FAIR      61  20  21 CALM      30.46F
SPRINGFIELD    FAIR      62  18  18 SE12      30.45F
TAYLORVILLE    FAIR      60  19  20 E5        30.45F
$$

ILZ033-039-045-046-055>057-062-063-202100-
EAST-CENTRAL ILLINOIS

CITY           SKY/WX    TMP DP  RH WIND       PRES   REMARKS
CHAMPAIGN      FAIR      63  21  20 NE10      30.45F
DANVILLE*      FAIR      60  22  23 E9        30.42F
RANTOUL*       FAIR      62  23  22 E8        30.45F
MATTOON        FAIR      61  22  22 E9        30.43F
PARIS*         FAIR      60  28  30 E7G18     30.44F
$$

ILZ079-100>102-202100-
SOUTHWEST ILLINOIS

CITY           SKY/WX    TMP DP  RH WIND       PRES   REMARKS
ALTON          PTSUNNY   61  28  29 E12       30.43F
BELLEVILLE     MOSUNNY   61  23  23 SE10      30.42F
CAHOKIA*       SUNNY     63  25  23 SE12G20   30.41F
SPARTA*        SUNNY     61  31  32 E9        30.43F
$$

ILZ064>066-069>071-074>076-080>082-084>086-088>090-092>094-202100-
SOUTH-CENTRAL ILLINOIS

CITY           SKY/WX    TMP DP  RH WIND       PRES   REMARKS
CARBONDALE     FAIR      62  27  26 NE12G21   30.40F
CAIRO*         FAIR      63  29  27 N7        30.39F
EFFINGHAM*     FAIR      60  26  27 NE5       30.45F
MARION         MOSUNNY   61  19  20 E12       30.42F
MT. VERNON     FAIR      62  23  22 E8        30.42F
CENTRALIA*     SUNNY     62  26  26 E6        30.42F
SALEM*         FAIR      63  19  18 E8        30.43F
METROPOLIS*    FAIR      66  29  25 E9        30.39F
$$

ILZ067-068-072-073-078-083-087-091-202100-
SOUTHEAST ILLINOIS

CITY           SKY/WX    TMP DP  RH WIND       PRES   REMARKS
LAWRENCEVILLE  FAIR      64  18  17 VRB7G17   30.43F
FLORA*         FAIR      63  24  22 NE14      30.43F
FAIRFIELD*     FAIR      61  25  24 E7        30.41F
HARRISBURG*    FAIR      61  28  29 E13       30.42F
ROBINSON*      FAIR      62  24  24 E7        30.44F
CARMI*         FAIR      62  26  25 NE8       30.41F
$$

ABBREVIATIONS USED IN REMARKS
   TC - TEMPERATURE IN CELSIUS
  WCI - WIND CHILL INDEX
   HX - HEAT INDEX
  VSB - VISIBILITY
$$




USA.gov is the U.S. government's official web portal to all federal, state and local government web resources and services.